When you browse on this site, cookies collect data to enhance your experience and personalize the content and advertising you see.
Visit our Privacy Policy to learn more. By continuing to use the site, you agree to this use of cookies and data.
  • In Portugal
  • List of Countries
  • For 7 days
  • Water Temperature
  • Satellite Maps
  • Weather Map
  • Weather Widgets
  • user-avatar
    Login

    Hourly Weather Swansea

    Today, 19 July, Friday

    Time Temperature Precipitation Wind Pressure Humidity
    00:00 +13°C° 0.1 mm 3 mps 757 mmHg 95%
    01:00 +14°C° 0.1 mm 4 mps 757 mmHg 95%
    02:00 +14°C° 0.1 mm 4 mps 756 mmHg 96%
    03:00 +14°C° 0.1 mm 4 mps 756 mmHg 96%
    04:00 +14°C° 1 mm 4 mps 756 mmHg 96%
    05:00 +14°C° 1 mm 4 mps 755 mmHg 97%
    06:00 +14°C° 1 mm 5 mps 755 mmHg 97%
    07:00 +15°C° 1.3 mm 5 mps 754 mmHg 97%
    08:00 +16°C° 1.3 mm 5 mps 754 mmHg 98%
    09:00 +16°C° 1.3 mm 5 mps 754 mmHg 98%
    10:00 +17°C° 0.4 mm 6 mps 754 mmHg 97%
    11:00 +17°C° 0.4 mm 8 mps 754 mmHg 96%
    12:00 +18°C° 0.4 mm 9 mps 753 mmHg 95%
    13:00 +18°C° 0.3 mm 9 mps 753 mmHg 94%
    14:00 +18°C° 0.3 mm 9 mps 753 mmHg 93%
    15:00 +19°C° 0.3 mm 9 mps 753 mmHg 92%
    16:00 +18°C° 0.1 mm 9 mps 753 mmHg 91%
    17:00 +18°C° 0.1 mm 8 mps 753 mmHg 89%
    18:00 +17°C° 0.1 mm 8 mps 753 mmHg 88%
    19:00 +17°C° 0.1 mm 8 mps 753 mmHg 89%
    20:00 +17°C° 0.1 mm 7 mps 753 mmHg 90%
    21:00 +16°C° 0.1 mm 7 mps 753 mmHg 91%
    22:00 +16°C° 0.2 mm 7 mps 753 mmHg 92%
    23:00 +16°C° 0.2 mm 7 mps 753 mmHg 93%

    Tomorrow, 20 July, Saturday

    Time Temperature Precipitation Wind Pressure Humidity
    00:00 +16°C° 0.2 mm 8 mps 753 mmHg 94%
    01:00 +16°C° 0.4 mm 8 mps 753 mmHg 94%
    02:00 +16°C° 0.4 mm 8 mps 753 mmHg 95%
    03:00 +15°C° 0.4 mm 8 mps 753 mmHg 96%
    04:00 +15°C° 0.2 mm 6 mps 753 mmHg 96%
    05:00 +15°C° 0.2 mm 5 mps 753 mmHg 96%
    06:00 +16°C° 0.2 mm 3 mps 753 mmHg 96%
    07:00 +17°C° 0.1 mm 3 mps 753 mmHg 93%
    08:00 +18°C° 0.1 mm 3 mps 754 mmHg 89%
    09:00 +19°C° 0.1 mm 3 mps 754 mmHg 86%
    10:00 +19°C° 0.1 mm 3 mps 754 mmHg 82%
    11:00 +20°C° 0.1 mm 4 mps 755 mmHg 79%
    12:00 +20°C° 0.1 mm 4 mps 755 mmHg 75%
    13:00 +21°C° 0 mm 4 mps 755 mmHg 74%
    14:00 +21°C° 0 mm 4 mps 755 mmHg 73%
    15:00 +21°C° 0 mm 4 mps 755 mmHg 72%
    16:00 +20°C° 0 mm 4 mps 756 mmHg 74%
    17:00 +20°C° 0 mm 4 mps 756 mmHg 76%
    18:00 +19°C° 0 mm 4 mps 756 mmHg 77%
    19:00 +18°C° 0 mm 3 mps 757 mmHg 82%
    20:00 +16°C° 0 mm 3 mps 758 mmHg 86%
    21:00 +13°C° 0 mm 3 mps 758 mmHg 91%
    22:00 +14°C° 0 mm 2 mps 759 mmHg 90%
    23:00 +13°C° 0 mm 2 mps 759 mmHg 90%

    Day after tomorrow, 21 July, Sunday

    Time Temperature Precipitation Wind Pressure Humidity
    00:00 +13°C° 0 mm 2 mps 760 mmHg 90%
    01:00 +13°C° 0 mm 2 mps 760 mmHg 90%
    02:00 +13°C° 0 mm 2 mps 760 mmHg 91%
    03:00 +13°C° 0 mm 2 mps 760 mmHg 91%
    04:00 +14°C° 0 mm 2 mps 761 mmHg 92%
    05:00 +15°C° 0 mm 2 mps 761 mmHg 94%
    06:00 +15°C° 0 mm 2 mps 761 mmHg 95%
    07:00 +16°C° 0 mm 3 mps 762 mmHg 90%
    08:00 +18°C° 0 mm 3 mps 762 mmHg 86%
    09:00 +19°C° 0 mm 4 mps 763 mmHg 81%
    10:00 +19°C° 0 mm 5 mps 763 mmHg 79%
    11:00 +20°C° 0 mm 5 mps 763 mmHg 78%
    12:00 +20°C° 0 mm 6 mps 763 mmHg 76%
    13:00 +20°C° 0 mm 6 mps 764 mmHg 76%
    14:00 +20°C° 0 mm 5 mps 764 mmHg 76%
    15:00 +20°C° 0 mm 5 mps 764 mmHg 76%
    16:00 +20°C° 0 mm 5 mps 764 mmHg 78%
    17:00 +19°C° 0 mm 5 mps 764 mmHg 80%
    18:00 +19°C° 0 mm 4 mps 764 mmHg 82%
    19:00 +18°C° 0 mm 4 mps 764 mmHg 86%
    20:00 +17°C° 0 mm 4 mps 764 mmHg 91%
    21:00 +16°C° 0 mm 3 mps 765 mmHg 95%
    22:00 +16°C° 0 mm 3 mps 765 mmHg 95%
    23:00 +16°C° 0 mm 3 mps 765 mmHg 96%

    22 July, Monday

    Time Temperature Precipitation Wind Pressure Humidity
    00:00 +15°C° 0 mm 4 mps 764 mmHg 96%
    01:00 +14°C° 0 mm 4 mps 764 mmHg 96%
    02:00 +14°C° 0 mm 3 mps 764 mmHg 96%
    03:00 +14°C° 0 mm 3 mps 764 mmHg 96%
    04:00 +14°C° 0 mm 3 mps 764 mmHg 95%
    05:00 +16°C° 0 mm 3 mps 764 mmHg 95%
    06:00 +16°C° 0 mm 3 mps 764 mmHg 95%
    07:00 +18°C° 0 mm 3 mps 764 mmHg 91%
    08:00 +19°C° 0 mm 3 mps 764 mmHg 86%
    09:00 +20°C° 0 mm 4 mps 764 mmHg 82%
    10:00 +21°C° 0 mm 3 mps 764 mmHg 78%
    11:00 +22°C° 0 mm 3 mps 764 mmHg 75%
    12:00 +22°C° 0 mm 3 mps 764 mmHg 72%
    13:00 +24°C° 0 mm 3 mps 764 mmHg 71%
    14:00 +24°C° 0 mm 3 mps 764 mmHg 70%
    15:00 +24°C° 0 mm 3 mps 764 mmHg 68%
    16:00 +24°C° 0 mm 2 mps 764 mmHg 71%
    17:00 +23°C° 0 mm 2 mps 764 mmHg 74%
    18:00 +23°C° 0 mm 2 mps 763 mmHg 77%
    19:00 +21°C° 0 mm 1 mps 763 mmHg 81%
    20:00 +20°C° 0 mm 1 mps 763 mmHg 86%
    21:00 +18°C° 0 mm 1 mps 763 mmHg 90%
    22:00 +18°C° 0 mm 1 mps 763 mmHg 90%
    23:00 +16°C° 0 mm 1 mps 763 mmHg 90%

    23 July, Tuesday

    Time Temperature Precipitation Wind Pressure Humidity
    00:00 +16°C° 0 mm 2 mps 763 mmHg 91%
    01:00 +16°C° 0 mm 2 mps 762 mmHg 89%
    02:00 +16°C° 0 mm 2 mps 762 mmHg 88%
    03:00 +16°C° 0 mm 3 mps 762 mmHg 87%
    04:00 +16°C° 0 mm 3 mps 761 mmHg 85%
    05:00 +17°C° 0 mm 3 mps 761 mmHg 84%
    06:00 +18°C° 0 mm 3 mps 760 mmHg 82%
    07:00 +20°C° 0 mm 4 mps 760 mmHg 78%
    08:00 +21°C° 0 mm 4 mps 760 mmHg 75%
    09:00 +23°C° 0 mm 4 mps 760 mmHg 71%
    10:00 +25°C° 0 mm 4 mps 760 mmHg 71%
    11:00 +26°C° 0 mm 4 mps 759 mmHg 71%
    12:00 +27°C° 0 mm 3 mps 759 mmHg 71%
    13:00 +27°C° 0 mm 3 mps 759 mmHg 70%
    14:00 +27°C° 0 mm 3 mps 758 mmHg 70%
    15:00 +27°C° 0 mm 2 mps 758 mmHg 69%
    16:00 +27°C° 0 mm 2 mps 758 mmHg 72%
    17:00 +26°C° 0 mm 2 mps 758 mmHg 75%
    18:00 +26°C° 0 mm 2 mps 757 mmHg 78%
    19:00 +24°C° 0 mm 2 mps 757 mmHg 81%
    20:00 +21°C° 0 mm 2 mps 757 mmHg 85%
    21:00 +19°C° 0 mm 2 mps 757 mmHg 89%
    22:00 +19°C° 0 mm 1 mps 757 mmHg 89%
    23:00 +19°C° 0 mm 1 mps 757 mmHg 89%

    24 July, Wednesday

    Time Temperature Precipitation Wind Pressure Humidity
    00:00 +17°C° 0 mm 0 mps 757 mmHg 88%
    01:00 +17°C° 0 mm 0 mps 756 mmHg 87%
    02:00 +19°C° 0 mm 1 mps 756 mmHg 86%
    03:00 +19°C° 0 mm 1 mps 756 mmHg 85%
    04:00 +19°C° 0 mm 1 mps 756 mmHg 85%
    05:00 +19°C° 0 mm 1 mps 755 mmHg 85%
    06:00 +19°C° 0 mm 1 mps 755 mmHg 85%
    07:00 +20°C° 0 mm 1 mps 755 mmHg 81%
    08:00 +21°C° 0 mm 1 mps 755 mmHg 76%
    09:00 +21°C° 0 mm 2 mps 755 mmHg 72%
    10:00 +21°C° 0 mm 2 mps 755 mmHg 71%
    11:00 +23°C° 0 mm 2 mps 755 mmHg 69%
    12:00 +23°C° 0 mm 2 mps 755 mmHg 68%
    13:00 +24°C° 0 mm 2 mps 755 mmHg 68%
    14:00 +24°C° 0 mm 2 mps 755 mmHg 67%
    15:00 +24°C° 0 mm 3 mps 754 mmHg 67%
    16:00 +24°C° 0 mm 3 mps 754 mmHg 70%
    17:00 +22°C° 0 mm 3 mps 754 mmHg 73%
    18:00 +22°C° 0 mm 4 mps 754 mmHg 77%
    19:00 +20°C° 0.3 mm 3 mps 754 mmHg 82%
    20:00 +19°C° 0.3 mm 2 mps 754 mmHg 88%
    21:00 +18°C° 0.3 mm 2 mps 754 mmHg 94%
    22:00 +19°C° 0.2 mm 1 mps 753 mmHg 95%
    23:00 +18°C° 0.2 mm 1 mps 753 mmHg 95%
    Show more